This is the latest recevied weather packets stored in our database for station/object BV5AB-33. If no packets are shown the sender has not sent any weather packets the latest 10 day(s).
| Time | Temp. | Humidity | Pressure | Rain* | Wind** | Luminosity | Snow |
|---|---|---|---|---|---|---|---|
| 1777751701 | 25° C | 74% | 980.2 hPa | 0 mm | - | - | - |
| 1777751100 | 24.44° C | 74% | 980.2 hPa | 0 mm | - | - | - |
| 1777746901 | 24.44° C | 73% | 980.6 hPa | 0 mm | - | - | - |
| 1777741202 | 25° C | 72% | 981.1 hPa | 0 mm | - | - | - |
| 1777737302 | 25° C | 72% | 981.6 hPa | 0 mm | - | - | - |
| 1777735802 | 25° C | 71% | 981.9 hPa | 0 mm | - | - | - |
| 1777734301 | 25.56° C | 71% | 982.2 hPa | 0 mm | - | - | - |
| 1777729202 | 26.11° C | 71% | 982.3 hPa | 0 mm | - | - | - |
| 1777728601 | 26.11° C | 70% | 982.2 hPa | 0 mm | - | - | - |
| 1777727102 | 26.11° C | 70% | 982.2 hPa | 0 mm | - | - | - |
| 1777726502 | 26.67° C | 70% | 981.9 hPa | 0 mm | - | - | - |
| 1777724401 | 26.67° C | 69% | 981.7 hPa | 0 mm | - | - | - |
| 1777721102 | 27.22° C | 68% | 981.1 hPa | 0 mm | - | - | - |
| 1777718102 | 27.78° C | 62% | 980.5 hPa | 0 mm | - | - | - |
| 1777716002 | 28.89° C | 60% | 980.4 hPa | 2.03 mm | - | - | - |
| 1777710602 | 30° C | 54% | 980.3 hPa | 0 mm | - | - | - |
| 1777707902 | 30.56° C | 53% | 980.6 hPa | 0 mm | - | - | - |
| 1777707303 | 30.56° C | 52% | 980.6 hPa | 0 mm | - | - | - |
| 1777707002 | 30.56° C | 53% | 980.5 hPa | 0 mm | - | - | - |
| 1777706403 | 30.56° C | 52% | 980.7 hPa | 0 mm | - | - | - |
| 1777705502 | 30.56° C | 52% | 980.9 hPa | 0 mm | - | - | - |
| 1777704902 | 30.56° C | 52% | 981.1 hPa | 0 mm | - | - | - |
| 1777704002 | 30.56° C | 53% | 980.9 hPa | 0 mm | - | - | - |
| 1777703703 | 30.56° C | 52% | 981.1 hPa | 0 mm | - | - | - |
| 1777702802 | 30.56° C | 52% | 981.3 hPa | 0 mm | - | - | - |
* Rain latest hour (hover to see other rain measurements)
** Current wind speed in m/s (hover to see current wind gust speed)